Time,TemperatureF,DewpointF,PressureIn,WindDirection,WindDirectionDegrees,WindSpeedMPH,WindSpeedGustMPH,Humidity,HourlyPrecipIn,Conditions,Clouds,dailyrainin,SoftwareType,DateUTC
2013-02-18 00:02:00,27.0,24.0,29.55,SE,138,1.0,-999.0,88,-99.99,,,-99.99,,2013-02-18 06:02:00,
2013-02-18 00:11:00,27.0,24.0,29.55,SE,138,1.0,-999.0,88,-99.99,,,-99.99,,2013-02-18 06:11:00,
2013-02-18 00:21:00,27.0,24.0,29.54,North,360,1.0,-999.0,88,-99.99,,,-99.99,,2013-02-18 06:21:00,
2013-02-18 00:32:00,27.0,24.0,29.55,SE,142,2.0,-999.0,88,-99.99,,,-99.99,,2013-02-18 06:32:00,
2013-02-18 00:41:00,27.0,24.0,29.55,SE,145,2.0,-999.0,88,-99.99,,,-99.99,,2013-02-18 06:41:00,
2013-02-18 00:51:00,27.0,24.0,29.55,SE,145,2.0,-999.0,88,-99.99,,,-99.99,,2013-02-18 06:51:00,
2013-02-18 01:01:00,26.0,23.0,29.54,SE,146,0.0,-999.0,88,-99.99,,,-99.99,,2013-02-18 07:01:00,
2013-02-18 01:11:00,26.0,23.0,29.54,SE,146,0.0,-999.0,88,-99.99,,,-99.99,,2013-02-18 07:11:00,
2013-02-18 01:21:00,26.0,23.0,29.54,SE,146,0.0,-999.0,89,-99.99,,,-99.99,,2013-02-18 07:21:00,
2013-02-18 01:32:00,26.0,23.0,29.54,SE,146,0.0,-999.0,89,-99.99,,,-99.99,,2013-02-18 07:32:00,
2013-02-18 01:42:00,26.0,23.0,29.54,SE,146,0.0,-999.0,89,-99.99,,,-99.99,,2013-02-18 07:42:00,
2013-02-18 01:52:00,25.0,22.0,29.54,SSE,152,0.0,-999.0,89,-99.99,,,-99.99,,2013-02-18 07:52:00,
2013-02-18 02:01:00,25.0,22.0,29.54,SSE,152,0.0,-999.0,90,-99.99,,,-99.99,,2013-02-18 08:01:00,
2013-02-18 02:11:00,25.0,22.0,29.54,SSE,152,0.0,-999.0,90,-99.99,,,-99.99,,2013-02-18 08:11:00,
2013-02-18 02:21:00,25.0,22.0,29.54,SSE,152,0.0,-999.0,90,-99.99,,,-99.99,,2013-02-18 08:21:00,
2013-02-18 02:32:00,25.0,23.0,29.54,SSE,152,0.0,-999.0,91,-99.99,,,-99.99,,2013-02-18 08:32:00,
2013-02-18 02:42:00,25.0,23.0,29.54,SSE,152,0.0,-999.0,91,-99.99,,,-99.99,,2013-02-18 08:42:00,
2013-02-18 02:52:00,25.0,23.0,29.54,South,184,0.0,-999.0,91,-99.99,,,-99.99,,2013-02-18 08:52:00,
2013-02-18 03:02:00,26.0,24.0,29.54,SSW,203,0.0,-999.0,92,-99.99,,,-99.99,,2013-02-18 09:02:00,
2013-02-18 03:11:00,26.0,24.0,29.54,SSW,203,0.0,-999.0,92,-99.99,,,-99.99,,2013-02-18 09:11:00,
2013-02-18 03:22:00,25.0,23.0,29.53,SSW,203,1.0,-999.0,92,-99.99,,,-99.99,,2013-02-18 09:22:00,
2013-02-18 03:31:00,25.0,23.0,29.54,SSW,207,2.0,-999.0,92,-99.99,,,-99.99,,2013-02-18 09:31:00,
2013-02-18 03:42:00,25.0,23.0,29.54,SSW,207,2.0,-999.0,92,-99.99,,,-99.99,,2013-02-18 09:42:00,
2013-02-18 03:52:00,25.0,23.0,29.54,SSW,209,1.0,-999.0,93,-99.99,,,-99.99,,2013-02-18 09:52:00,
2013-02-18 04:01:00,25.0,23.0,29.55,SW,221,3.0,-999.0,93,-99.99,,,-99.99,,2013-02-18 10:01:00,
2013-02-18 04:11:00,25.0,23.0,29.55,SW,221,3.0,-999.0,93,-99.99,,,-99.99,,2013-02-18 10:11:00,
2013-02-18 04:21:00,25.0,23.0,29.55,SW,221,3.0,-999.0,93,-99.99,,,-99.99,,2013-02-18 10:21:00,
2013-02-18 04:31:00,26.0,24.0,29.55,SW,225,4.0,-999.0,93,-99.99,,,-99.99,,2013-02-18 10:31:00,
2013-02-18 04:42:00,26.0,24.0,29.55,SW,225,4.0,-999.0,93,-99.99,,,-99.99,,2013-02-18 10:42:00,
2013-02-18 04:53:00,28.0,26.0,29.55,SW,229,3.0,-999.0,93,-99.99,,,-99.99,,2013-02-18 10:53:00,
2013-02-18 05:01:00,28.0,26.0,29.56,SW,230,5.0,-999.0,92,-99.99,,,-99.99,,2013-02-18 11:01:00,
2013-02-18 05:11:00,28.0,26.0,29.56,SW,230,5.0,-999.0,92,-99.99,,,-99.99,,2013-02-18 11:11:00,
2013-02-18 05:22:00,29.0,27.0,29.56,SW,230,4.0,-999.0,92,-99.99,,,-99.99,,2013-02-18 11:22:00,
2013-02-18 05:32:00,29.0,27.0,29.56,SW,230,3.0,-999.0,92,-99.99,,,-99.99,,2013-02-18 11:32:00,
2013-02-18 05:42:00,29.0,27.0,29.56,SW,230,3.0,-999.0,92,-99.99,,,-99.99,,2013-02-18 11:42:00,
2013-02-18 05:53:00,29.0,27.0,29.56,SW,230,3.0,-999.0,92,-99.99,,,-99.99,,2013-02-18 11:53:00,
2013-02-18 06:02:00,30.0,28.0,29.56,WSW,256,4.0,-999.0,92,-99.99,,,-99.99,,2013-02-18 12:02:00,
2013-02-18 06:11:00,30.0,28.0,29.56,WSW,256,4.0,-999.0,92,-99.99,,,-99.99,,2013-02-18 12:11:00,
2013-02-18 06:22:00,31.0,29.0,29.55,West,275,5.0,-999.0,92,-99.99,,,-99.99,,2013-02-18 12:22:00,
2013-02-18 06:32:00,33.0,31.0,29.55,North,360,10.0,-999.0,93,-99.99,,,-99.99,,2013-02-18 12:32:00,
2013-02-18 06:42:00,33.0,31.0,29.55,North,360,10.0,-999.0,93,-99.99,,,-99.99,,2013-02-18 12:42:00,
2013-02-18 06:52:00,25.0,23.0,29.57,North,360,11.0,-999.0,91,-99.99,,,-99.99,,2013-02-18 12:52:00,
2013-02-18 07:03:00,24.0,22.0,29.59,WNW,286,11.0,-999.0,91,-99.99,,,-99.99,,2013-02-18 13:03:00,
2013-02-18 07:12:00,24.0,22.0,29.59,WNW,286,11.0,-999.0,91,-99.99,,,-99.99,,2013-02-18 13:12:00,
2013-02-18 07:22:00,23.0,21.0,29.60,North,360,10.0,-999.0,92,-99.99,,,-99.99,,2013-02-18 13:22:00,
2013-02-18 07:32:00,23.0,21.0,29.59,North,360,13.0,-999.0,91,-99.99,,,-99.99,,2013-02-18 13:32:00,
2013-02-18 07:42:00,23.0,21.0,29.59,North,360,13.0,-999.0,91,-99.99,,,-99.99,,2013-02-18 13:42:00,
2013-02-18 07:53:00,22.0,19.0,29.61,North,360,14.0,-999.0,89,-99.99,,,-99.99,,2013-02-18 13:53:00,
2013-02-18 08:02:00,22.0,19.0,29.62,North,360,15.0,-999.0,89,-99.99,,,-99.99,,2013-02-18 14:02:00,
2013-02-18 08:11:00,22.0,19.0,29.62,North,360,15.0,-999.0,89,-99.99,,,-99.99,,2013-02-18 14:11:00,
2013-02-18 08:22:00,21.0,18.0,29.63,NW,317,12.0,-999.0,88,-99.99,,,-99.99,,2013-02-18 14:22:00,
2013-02-18 08:33:00,20.0,17.0,29.65,North,360,11.0,-999.0,88,-99.99,,,-99.99,,2013-02-18 14:33:00,
2013-02-18 08:42:00,20.0,17.0,29.65,North,360,11.0,-999.0,88,-99.99,,,-99.99,,2013-02-18 14:42:00,
2013-02-18 08:53:00,19.0,16.0,29.66,North,360,11.0,-999.0,87,-99.99,,,-99.99,,2013-02-18 14:53:00,
2013-02-18 09:02:00,18.0,15.0,29.67,North,360,14.0,-999.0,86,-99.99,,,-99.99,,2013-02-18 15:02:00,
2013-02-18 09:11:00,18.0,15.0,29.67,North,360,14.0,-999.0,86,-99.99,,,-99.99,,2013-02-18 15:11:00,
2013-02-18 09:22:00,17.0,13.0,29.67,North,360,13.0,-999.0,85,-99.99,,,-99.99,,2013-02-18 15:22:00,
2013-02-18 09:32:00,16.0,12.0,29.67,North,360,16.0,-999.0,85,-99.99,,,-99.99,,2013-02-18 15:32:00,
2013-02-18 09:42:00,16.0,12.0,29.67,North,360,16.0,-999.0,85,-99.99,,,-99.99,,2013-02-18 15:42:00,
2013-02-18 09:52:00,15.0,12.0,29.69,North,360,18.0,-999.0,86,-99.99,,,-99.99,,2013-02-18 15:52:00,
2013-02-18 10:02:00,14.0,11.0,29.70,North,360,18.0,-999.0,86,-99.99,,,-99.99,,2013-02-18 16:02:00,
2013-02-18 10:12:00,14.0,11.0,29.70,North,360,18.0,-999.0,86,-99.99,,,-99.99,,2013-02-18 16:12:00,
2013-02-18 10:22:00,14.0,11.0,29.71,North,360,14.0,-999.0,86,-99.99,,,-99.99,,2013-02-18 16:22:00,
2013-02-18 10:32:00,13.0,9.0,29.73,North,360,16.0,-999.0,85,-99.99,,,-99.99,,2013-02-18 16:32:00,
2013-02-18 10:42:00,13.0,9.0,29.73,North,360,16.0,-999.0,85,-99.99,,,-99.99,,2013-02-18 16:42:00,
2013-02-18 10:52:00,12.0,8.0,29.75,North,360,18.0,-999.0,83,-99.99,,,-99.99,,2013-02-18 16:52:00,
2013-02-18 11:03:00,11.0,7.0,29.75,North,360,21.0,-999.0,83,-99.99,,,-99.99,,2013-02-18 17:03:00,
2013-02-18 11:12:00,11.0,7.0,29.75,North,360,21.0,-999.0,83,-99.99,,,-99.99,,2013-02-18 17:12:00,
2013-02-18 11:22:00,11.0,7.0,29.75,North,360,15.0,-999.0,83,-99.99,,,-99.99,,2013-02-18 17:22:00,
2013-02-18 11:32:00,11.0,7.0,29.75,North,360,15.0,-999.0,83,-99.99,,,-99.99,,2013-02-18 17:32:00,
2013-02-18 11:42:00,11.0,7.0,29.75,North,360,15.0,-999.0,83,-99.99,,,-99.99,,2013-02-18 17:42:00,
2013-02-18 11:52:00,10.0,6.0,29.76,North,360,19.0,-999.0,84,-99.99,,,-99.99,,2013-02-18 17:52:00,
2013-02-18 12:02:00,10.0,6.0,29.78,North,360,18.0,-999.0,82,-99.99,,,-99.99,,2013-02-18 18:02:00,
2013-02-18 12:12:00,10.0,6.0,29.78,North,360,18.0,-999.0,82,-99.99,,,-99.99,,2013-02-18 18:12:00,
2013-02-18 12:22:00,9.0,5.0,29.78,North,360,20.0,-999.0,85,-99.99,,,-99.99,,2013-02-18 18:22:00,
2013-02-18 12:32:00,9.0,5.0,29.78,North,360,20.0,-999.0,83,-99.99,,,-99.99,,2013-02-18 18:32:00,
2013-02-18 12:42:00,9.0,5.0,29.78,North,360,20.0,-999.0,83,-99.99,,,-99.99,,2013-02-18 18:42:00,
2013-02-18 12:52:00,9.0,5.0,29.78,North,360,20.0,-999.0,83,-99.99,,,-99.99,,2013-02-18 18:52:00,
2013-02-18 13:03:00,9.0,5.0,29.79,North,360,14.0,-999.0,83,-99.99,,,-99.99,,2013-02-18 19:03:00,
2013-02-18 13:12:00,9.0,5.0,29.79,North,360,14.0,-999.0,83,-99.99,,,-99.99,,2013-02-18 19:12:00,
2013-02-18 13:22:00,9.0,4.0,29.79,North,360,18.0,-999.0,81,-99.99,,,-99.99,,2013-02-18 19:22:00,
2013-02-18 13:33:00,9.0,5.0,29.79,North,360,17.0,-999.0,82,-99.99,,,-99.99,,2013-02-18 19:33:00,
2013-02-18 13:42:00,9.0,5.0,29.79,North,360,17.0,-999.0,82,-99.99,,,-99.99,,2013-02-18 19:42:00,
2013-02-18 13:52:00,8.0,3.0,29.80,NW,325,20.0,-999.0,81,-99.99,,,-99.99,,2013-02-18 19:52:00,
2013-02-18 14:02:00,8.0,3.0,29.81,North,360,18.0,-999.0,80,-99.99,,,-99.99,,2013-02-18 20:02:00,
2013-02-18 14:12:00,8.0,3.0,29.81,North,360,18.0,-999.0,80,-99.99,,,-99.99,,2013-02-18 20:12:00,
2013-02-18 14:23:00,8.0,3.0,29.81,North,360,20.0,-999.0,79,-99.99,,,-99.99,,2013-02-18 20:23:00,
2013-02-18 14:33:00,8.0,3.0,29.82,North,360,18.0,-999.0,80,-99.99,,,-99.99,,2013-02-18 20:33:00,
2013-02-18 14:42:00,8.0,3.0,29.82,North,360,18.0,-999.0,80,-99.99,,,-99.99,,2013-02-18 20:42:00,
2013-02-18 14:52:00,7.0,2.0,29.83,North,360,19.0,-999.0,78,-99.99,,,-99.99,,2013-02-18 20:52:00,
2013-02-18 15:03:00,6.0,1.0,29.84,North,360,19.0,-999.0,80,-99.99,,,-99.99,,2013-02-18 21:03:00,
2013-02-18 15:12:00,6.0,1.0,29.84,North,360,19.0,-999.0,80,-99.99,,,-99.99,,2013-02-18 21:12:00,
2013-02-18 15:22:00,6.0,1.0,29.84,NNW,331,19.0,-999.0,79,-99.99,,,-99.99,,2013-02-18 21:22:00,
2013-02-18 15:32:00,5.0,0.0,29.85,North,360,19.0,-999.0,79,-99.99,,,-99.99,,2013-02-18 21:32:00,
2013-02-18 15:42:00,5.0,0.0,29.85,North,360,19.0,-999.0,79,-99.99,,,-99.99,,2013-02-18 21:42:00,
2013-02-18 15:53:00,5.0,0.0,29.86,North,360,16.0,-999.0,79,-99.99,,,-99.99,,2013-02-18 21:53:00,
2013-02-18 16:02:00,4.0,-1.0,29.88,North,360,16.0,-999.0,79,-99.99,,,-99.99,,2013-02-18 22:02:00,
2013-02-18 16:12:00,3.0,-2.0,29.88,North,360,17.0,-999.0,79,-99.99,,,-99.99,,2013-02-18 22:12:00,
2013-02-18 16:22:00,3.0,-2.0,29.88,North,360,17.0,-999.0,79,-99.99,,,-99.99,,2013-02-18 22:22:00,
2013-02-18 16:33:00,3.0,-2.0,29.88,North,360,16.0,-999.0,79,-99.99,,,-99.99,,2013-02-18 22:33:00,
2013-02-18 16:42:00,3.0,-2.0,29.88,North,360,16.0,-999.0,79,-99.99,,,-99.99,,2013-02-18 22:42:00,
2013-02-18 16:53:00,3.0,-2.0,29.89,North,360,17.0,-999.0,80,-99.99,,,-99.99,,2013-02-18 22:53:00,
2013-02-18 17:02:00,3.0,-2.0,29.90,North,360,16.0,-999.0,79,-99.99,,,-99.99,,2013-02-18 23:02:00,
2013-02-18 17:12:00,3.0,-2.0,29.90,North,360,16.0,-999.0,79,-99.99,,,-99.99,,2013-02-18 23:12:00,
2013-02-18 17:22:00,3.0,-2.0,29.91,North,360,16.0,-999.0,79,-99.99,,,-99.99,,2013-02-18 23:22:00,
2013-02-18 17:33:00,2.0,-3.0,29.92,North,360,17.0,-999.0,78,-99.99,,,-99.99,,2013-02-18 23:33:00,
2013-02-18 17:42:00,2.0,-3.0,29.92,North,360,17.0,-999.0,78,-99.99,,,-99.99,,2013-02-18 23:42:00,
2013-02-18 17:53:00,1.0,-4.0,29.93,North,360,14.0,-999.0,80,-99.99,,,-99.99,,2013-02-18 23:53:00,
2013-02-18 18:02:00,1.0,-3.0,29.94,North,360,16.0,-999.0,81,-99.99,,,-99.99,,2013-02-19 00:02:00,
2013-02-18 18:12:00,1.0,-3.0,29.94,North,360,16.0,-999.0,81,-99.99,,,-99.99,,2013-02-19 00:12:00,
2013-02-18 18:22:00,1.0,-3.0,29.94,North,360,16.0,-999.0,82,-99.99,,,-99.99,,2013-02-19 00:22:00,
2013-02-18 18:33:00,1.0,-3.0,29.96,North,360,16.0,-999.0,82,-99.99,,,-99.99,,2013-02-19 00:33:00,
2013-02-18 18:43:00,1.0,-3.0,29.96,North,360,16.0,-999.0,82,-99.99,,,-99.99,,2013-02-19 00:43:00,
2013-02-18 18:54:00,1.0,-3.0,29.96,North,360,16.0,-999.0,82,-99.99,,,-99.99,,2013-02-19 00:54:00,
2013-02-18 19:03:00,0.0,-4.0,29.97,North,360,16.0,-999.0,83,-99.99,,,-99.99,,2013-02-19 01:03:00,
2013-02-18 19:13:00,0.0,-4.0,29.97,North,360,16.0,-999.0,83,-99.99,,,-99.99,,2013-02-19 01:13:00,
2013-02-18 19:23:00,0.0,-4.0,29.97,North,360,16.0,-999.0,83,-99.99,,,-99.99,,2013-02-19 01:23:00,
2013-02-18 19:33:00,0.0,-4.0,29.98,North,360,17.0,-999.0,82,-99.99,,,-99.99,,2013-02-19 01:33:00,
2013-02-18 19:43:00,0.0,-4.0,29.98,North,360,17.0,-999.0,82,-99.99,,,-99.99,,2013-02-19 01:43:00,
2013-02-18 19:53:00,0.0,-4.0,29.98,North,360,15.0,-999.0,83,-99.99,,,-99.99,,2013-02-19 01:53:00,
2013-02-18 20:03:00,0.0,-4.0,29.98,North,360,16.0,-999.0,82,-99.99,,,-99.99,,2013-02-19 02:03:00,
2013-02-18 20:13:00,0.0,-4.0,29.98,North,360,16.0,-999.0,82,-99.99,,,-99.99,,2013-02-19 02:13:00,
2013-02-18 20:23:00,0.0,-4.0,29.98,North,360,18.0,-999.0,82,-99.99,,,-99.99,,2013-02-19 02:23:00,
2013-02-18 20:42:00,-1.0,-5.0,29.99,North,360,17.0,-999.0,82,-99.99,,,-99.99,,2013-02-19 02:42:00,
2013-02-18 20:53:00,-1.0,-5.0,30.00,North,360,18.0,-999.0,81,-99.99,,,-99.99,,2013-02-19 02:53:00,
2013-02-18 21:06:00,-2.0,-6.0,30.00,North,360,16.0,-999.0,81,-99.99,,,-99.99,,2013-02-19 03:06:00,
2013-02-18 21:14:00,-2.0,-6.0,30.00,North,360,16.0,-999.0,81,-99.99,,,-99.99,,2013-02-19 03:14:00,
2013-02-18 21:23:00,-2.0,-7.0,30.01,North,360,17.0,-999.0,80,-99.99,,,-99.99,,2013-02-19 03:23:00,
2013-02-18 21:34:00,-2.0,-6.0,30.01,North,360,14.0,-999.0,81,-99.99,,,-99.99,,2013-02-19 03:34:00,
2013-02-18 21:44:00,-2.0,-6.0,30.01,North,360,14.0,-999.0,81,-99.99,,,-99.99,,2013-02-19 03:44:00,
2013-02-18 21:53:00,-2.0,-6.0,30.02,North,360,18.0,-999.0,81,-99.99,,,-99.99,,2013-02-19 03:53:00,
2013-02-18 22:02:00,-2.0,-6.0,30.03,North,360,16.0,-999.0,81,-99.99,,,-99.99,,2013-02-19 04:02:00,
2013-02-18 22:14:00,-2.0,-6.0,30.03,North,360,16.0,-999.0,81,-99.99,,,-99.99,,2013-02-19 04:14:00,
2013-02-18 22:33:00,-3.0,-7.0,30.04,North,360,17.0,-999.0,82,-99.99,,,-99.99,,2013-02-19 04:33:00,
2013-02-18 22:43:00,-3.0,-7.0,30.04,North,360,17.0,-999.0,82,-99.99,,,-99.99,,2013-02-19 04:43:00,
2013-02-18 22:52:00,-3.0,-7.0,30.04,North,360,17.0,-999.0,82,-99.99,,,-99.99,,2013-02-19 04:52:00,
2013-02-18 23:02:00,-3.0,-7.0,30.04,WNW,296,16.0,-999.0,82,-99.99,,,-99.99,,2013-02-19 05:02:00,
2013-02-18 23:12:00,-3.0,-7.0,30.04,WNW,296,16.0,-999.0,82,-99.99,,,-99.99,,2013-02-19 05:12:00,
2013-02-18 23:22:00,-3.0,-7.0,30.05,North,360,16.0,-999.0,82,-99.99,,,-99.99,,2013-02-19 05:22:00,
2013-02-18 23:32:00,-2.0,-6.0,30.06,North,360,16.0,-999.0,82,-99.99,,,-99.99,,2013-02-19 05:32:00,
2013-02-18 23:43:00,-2.0,-6.0,30.06,North,360,16.0,-999.0,82,-99.99,,,-99.99,,2013-02-19 05:43:00,
2013-02-18 23:52:00,-2.0,-6.0,30.06,North,360,15.0,-999.0,83,-99.99,,,-99.99,,2013-02-19 05:52:00,